Weather Roundup
Issued by NWS Corpus Christi, TX

Home | Current Version | Previous Version | Text Only | Print | Product List | Glossary On
Versions: 1 2 3 4 5 6 7 8 9 10 11 12 13 14 15 16 17 18 19 20 21 22 23 24 25 26 27 28 29 30 31 32 33 34 35 36 37 38 39 40 41 42 43 44 45 46 47 48 49 50
000
ASUS44 KCRP 210110
HRRCRP

SOUTH TEXAS REGIONAL WEATHER ROUNDUP
NATIONAL WEATHER SERVICE CORPUS CHRISTI TX
700 PM CST FRI JAN 20 2017


TXZ229>244-210200-
...CORPUS CHRISTI AREA OBSERVATIONS...

CITY           SKY/WX    TMP DP  RH WIND       PRES   REMARKS
CORPUS CHRISTI FOG       66  66 100 E3        29.66S VSB 1
NAS CORPUS CHR FOG       65  65 100 CALM      29.66S VSB 3/4
ROCKPORT       CLOUDY    67  65  93 E7        29.65S FOG
KINGSVILLE NAS CLOUDY    67  67 100 CALM      29.68R FOG
ALICE          CLOUDY    67  66  97 SW5       29.68R
ORANGE GROVE   CLOUDY    67  67 100 SW5       29.69R
FALFURRIAS     CLOUDY    68  65  90 NW3       29.68R
$$

...VICTORIA AREA OBSERVATIONS...

CITY           SKY/WX    TMP DP  RH WIND       PRES   REMARKS
VICTORIA       CLOUDY    65  63  93 E5        29.66S
BEEVILLE       CLOUDY    56  56 100 CALM      29.67R FOG
PLEASANTON     CLEAR     60  56  86 CALM      29.69R
SAN ANTONIO    MOCLDY    69  49  48 S3        29.70R
$$

...LAREDO AREA OBSERVATIONS...

CITY           SKY/WX    TMP DP  RH WIND       PRES   REMARKS
LAREDO         CLEAR     65  57  75 E6        29.67S
COTULLA        CLEAR     69  57  65 SE6       29.67R
DEL RIO        CLEAR     66  39  37 N5        29.67R
MCALLEN        PTCLDY    73  65  75 N3        29.69R
HEBBRONVILLE   CLEAR     64  62  93 E3        29.69S
$$

...OTHER TEXAS OBSERVATIONS...

CITY           SKY/WX    TMP DP  RH WIND       PRES   REMARKS
BROWNSVILLE    CLOUDY    73  67  81 NE3       29.68R
HOUSTON        TSTM      67  65  93 SE13      29.68F FOG
COL. STATION   CLOUDY    66  56  70 E5        29.68S
AUSTIN         MOCLDY    63  49  60 S3        29.68R
WACO           PTCLDY    64  49  57 S12       29.66R
FORT WORTH     PTCLDY    62  38  40 S10       29.60R
WICHITA FALLS  CLEAR     60  35  39 SW10      29.57R
LUBBOCK        PTCLDY    51  31  46 W7        29.61R
EL PASO        MOCLDY    56  26  31 W14G31    29.68S
$$

...MARINE OBSERVATIONS...

STATION/POSITION TIME  SKY/WX   TEMP    WIND        PRES    VSBY  WAVE   SWELL
                                AIR SEA DIR/SP/G                  HT/PER HT/PER
                 (UTC)          (F)     (DEG/KT/KT) (MB)    (MI)  (FT/S) (FT/S)
PORT ARANSAS     0100            65 63   50/  3/  3 1004.1S
BUOY 90 E PORT A 2350            74 74  150/ 14/ 17 1004.8          3/ 7   2/ 7
BUOY 45 SE BAFFI 2350            72     160/  8/ 10 1004.1          3/ 8   3/ 8
BUOY 200 E PT IS 2350            76 75  160/ 10/ 12 1006.6          3/ 6   3/ 6
BUOY 15 E GALVES 2350            67 67   90/ 10/ 10 1005.5          2/ 7   2/ 7
$$




USA.gov is the U.S. government's official web portal to all federal, state and local government web resources and services.